Surface/Precipitation History
02/08/2018 18:13  to  2/9/2018 18:13
Change End Date:
Date/Time
(MDT)
Sf
Temp Chem Water Layer Surface Precipitation
Sfc Pvt Sub Frz Factor Pct Dpth DpthThk IcePct Cond Salin FI Type Intens Accum Rate
02/09/2018 18:12 Ice Warning 24.8F - 31F 32F 80 1% - - 96% 3 mhos 297 - None None - -
02/09/2018 18:02 Ice Warning 25.3F - 31F 32F 85 1% - - 96% 3 mhos 309 - None None - -
02/09/2018 18:00 Ice Warning 25.3F - 31F 32F 85 1% - - 95% 3 mhos 316 - None None - -
02/09/2018 17:52 Ice Warning 25.7F - 31F 32F 95 1% - - 95% 3 mhos 326 - None None - -
02/09/2018 17:45 Ice Warning 26.1F - 31F 32F 95 1% - - 94% 3 mhos 341 - None None - -
02/09/2018 17:42 Ice Warning 26.2F - 31F 32F 95 1% - - 94% 3 mhos 340 - None None - -
02/09/2018 17:32 Ice Warning 26.8F - 31F 32F 95 1% - - 93% 3 mhos 360 - None None - -
02/09/2018 17:30 Ice Warning 26.8F - 31F 32F 95 1% - - 93% 3 mhos 365 - None None - -
02/09/2018 17:22 Ice Warning 27.1F - 31F 32F 95 1% - - 92% 3 mhos 376 - None None - -
02/09/2018 17:15 Ice Warning 27.3F - 31F 32F 95 1% - - 92% 3 mhos 388 - None None - -
02/09/2018 17:12 Ice Warning 27.5F - 31F 32F 95 2% - - 91% 3 mhos 395 - None None - -
02/09/2018 17:01 Ice Warning 28.0F - 31F 32F 95 2% - - 90% 4 mhos 419 - None None - -
02/09/2018 17:00 Ice Warning 27.9F - 31F 31F 95 2% - - 90% 4 mhos 423 - None None - -
02/09/2018 16:51 Ice Warning 28.2F - 31F 31F 95 2% - - 88% 4 mhos 457 - None None - -
02/09/2018 16:45 Ice Warning 28.6F - 31F 31F 95 2% - - 86% 4 mhos 470 - None None - -
Date/Time
(MDT)
Sf
Temp Chem Water Layer Surface Precipitation
Sfc Pvt Sub Frz Factor Pct Dpth DpthThk IcePct Cond Salin FI Type Intens Accum Rate
02/09/2018 16:41 Ice Warning 28.6F - 31F 31F 95 2% - - 87% 4 mhos 459 - None None - -
02/09/2018 16:31 Chemically Wet 29.3F - 31F 31F 95 2% - - 81% 4 mhos 494 - None None - -
02/09/2018 16:30 Chemically Wet 29.3F - 31F 31F 95 2% - - 81% 4 mhos 494 - None None - -
02/09/2018 16:21 Chemically Wet 29.1F - 31F 31F 95 2% - - 82% 4 mhos 490 - None None - -
02/09/2018 16:15 Chemically Wet 29.8F - 31F 31F 95 2% - - 77% 4 mhos 498 - None None - -
02/09/2018 16:11 Chemically Wet 30.2F - 31F 31F 95 2% - - 73% 4 mhos 496 - None None - -
02/09/2018 16:01 Chemically Wet 30.6F - 31F 31F 95 2% - - 64% 5 mhos 493 - None None - -
02/09/2018 16:00 Chemically Wet 30.6F - 31F 31F 95 2% - - 64% 4 mhos 492 - None None - -
02/09/2018 15:51 Chemically Wet 30.9F - 31F 31F 95 2% - - 52% 5 mhos 510 - None None - -
02/09/2018 15:45 Chemically Wet 31.8F - 31F 31F 95 2% 0.00 in - 0% 5 mhos 497 - None None - -
02/09/2018 15:41 Chemically Wet 31.8F - 31F 31F 95 2% 0.00 in - 0% 5 mhos 489 - None None - -
02/09/2018 15:31 Chemically Wet 31.8F - 31F 31F 95 2% 0.00 in - 0% 4 mhos 472 - None None - -
02/09/2018 15:30 Chemically Wet 31.8F - 31F 31F 95 2% 0.00 in - 0% 4 mhos 469 - None None - -
02/09/2018 15:21 Wet 32.9F - 31F 31F 95 2% 0.00 in - 0% 4 mhos 471 - None None - -
02/09/2018 15:15 Wet 33.1F - 31F 31F 95 2% 0.00 in - 0% 4 mhos 443 - None None - -
Date/Time
(MDT)
Sf
Temp Chem Water Layer Surface Precipitation
Sfc Pvt Sub Frz Factor Pct Dpth DpthThk IcePct Cond Salin FI Type Intens Accum Rate
02/09/2018 15:11 Wet 33.1F - 31F 31F 95 2% 0.00 in - 0% 5 mhos 494 - None None - -
02/09/2018 15:01 Wet 33.8F - 31F 31F 95 2% 0.00 in - 0% 4 mhos 452 - None None - -
02/09/2018 15:00 Wet 34.0F - 31F 31F 95 2% 0.00 in - 0% 4 mhos 449 - None None - -
02/09/2018 14:51 Wet 33.8F - 31F 32F 95 2% 0.00 in - 0% 4 mhos 420 - None None - -
02/09/2018 14:45 Wet 34.2F - 31F 31F 95 2% 0.00 in - 0% 4 mhos 468 - None None - -
02/09/2018 14:41 Wet 35.8F - 31F 31F 95 2% 0.00 in - 0% 4 mhos 455 - None None - -
02/09/2018 14:31 Wet 37.4F - 31F 32F 95 2% 0.00 in - 0% 4 mhos 411 - None None - -
02/09/2018 14:30 Wet 36.0F - 31F 32F 95 2% 0.00 in - 0% 4 mhos 410 - None None - -
02/09/2018 14:21 Wet 34.9F - 31F 32F 95 1% 0.00 in - 0% 4 mhos 379 - None None - -
02/09/2018 14:15 Wet 38.1F - 31F 32F 95 1% 0.00 in - 0% 3 mhos 328 - None None - -
02/09/2018 14:11 Wet 38.3F - 31F 32F 95 1% 0.00 in - 0% 4 mhos 370 - None None - -
02/09/2018 14:01 Wet 36.5F - 31F 32F 95 1% 0.00 in - 0% 3 mhos 301 - None None - -
02/09/2018 14:00 Wet 35.6F - 31F 32F 95 1% 0.00 in - 0% 3 mhos 297 - None None - -
02/09/2018 13:50 Wet 35.1F - 31F 32F 95 1% 0.00 in - 0% 3 mhos 293 - None None - -
02/09/2018 13:45 Wet 35.6F - 31F 32F 95 1% 0.00 in - 0% 3 mhos 315 - None None - -
Date/Time
(MDT)
Sf
Temp Chem Water Layer Surface Precipitation
Sfc Pvt Sub Frz Factor Pct Dpth DpthThk IcePct Cond Salin FI Type Intens Accum Rate
02/09/2018 13:40 Wet 35.1F - 31F 32F 95 1% 0.00 in - 0% 3 mhos 339 - None None - -
02/09/2018 13:30 Chemically Wet 31.5F - 31F 32F 95 1% - - 21% 3 mhos 350 - None None - -
02/09/2018 13:30 Chemically Wet 31.8F - 31F 32F 95 1% 0.00 in - 0% 3 mhos 353 - None None - -
02/09/2018 13:20 Chemically Wet 31.3F - 31F 32F 95 1% - - 60% 3 mhos 300 - None None - -
02/09/2018 13:15 Chemically Wet 30.4F - 31F 32F 95 1% - - 84% 2 mhos 244 - None None - -
02/09/2018 13:10 Ice Warning 30.2F - 31F 32F 95 1% - - 88% 2 mhos 221 - None None - -
02/09/2018 13:00 Ice Warning 30.4F - 31F 32F 95 1% - - 87% 2 mhos 196 - None None - -
02/09/2018 13:00 Ice Warning 30.2F - 31F 32F 95 1% - - 90% 2 mhos 183 - None None - -
02/09/2018 12:50 Ice Warning 29.3F - 31F 32F 95 0% - - 96% 1 mhos 116 - None None - -
02/09/2018 12:45 Ice Warning 28.9F - 31F 32F 95 0% - - 98% 1 mhos 66 - None None - -
02/09/2018 12:40 Ice Warning 28.6F - 31F 32F 95 0% - - 98% 1 mhos 57 - None None - -
02/09/2018 12:30 Ice Warning 27.9F - 31F 32F 70 0% - - 99% 0 mhos 43 - None None - -
02/09/2018 12:30 Ice Warning 27.9F - 31F 32F 70 0% - - 99% 0 mhos 43 - None None - -
02/09/2018 12:20 Ice Warning 26.2F - 31F 32F 55 0% - - 99% 0 mhos 34 - None None - -
02/09/2018 12:15 Ice Warning 26.6F - 31F 32F 50 0% - - 99% 0 mhos 34 - None None - -
Date/Time
(MDT)
Sf
Temp Chem Water Layer Surface Precipitation
Sfc Pvt Sub Frz Factor Pct Dpth DpthThk IcePct Cond Salin FI Type Intens Accum Rate
02/09/2018 12:10 Ice Warning 26.4F - 31F 32F 60 0% - - 99% 0 mhos 32 - None None - -
02/09/2018 12:00 Ice Warning 25.9F - 31F 32F 55 0% - - 100% 0 mhos 29 - None None - -
02/09/2018 12:00 Ice Warning 25.9F - 31F 32F 55 0% - - 100% 0 mhos 29 - None None - -
02/09/2018 11:50 Ice Warning 25.5F - 31F 32F 60 0% - - 100% 0 mhos 27 - None None - -
02/09/2018 11:45 Ice Warning 25.2F - 31F 32F 55 0% - - 100% 0 mhos 26 - None None - -
02/09/2018 11:40 Ice Warning 25.3F - 31F 32F 60 0% - - 100% 0 mhos 26 - None None - -
02/09/2018 11:30 Ice Warning 25.3F - 31F 32F 50 0% - - 100% 0 mhos 25 - None None - -
02/09/2018 11:30 Ice Warning 25.2F - 31F 32F 50 0% - - 100% 0 mhos 24 - None None - -
02/09/2018 11:20 Ice Warning 24.3F - 31F 32F 45 0% - - 100% 0 mhos 21 - None None - -
02/09/2018 11:15 Ice Warning 22.5F - 31F 32F 40 0% - - 100% 0 mhos 18 - None None - -
02/09/2018 11:10 Ice Warning 21.4F - 31F 32F 35 0% - - 100% 0 mhos 16 - None None - -
02/09/2018 11:00 Ice Warning 19.4F - 31F 32F 30 0% - - 100% 0 mhos 14 - None None - -
02/09/2018 11:00 Ice Warning 19.4F - 31F 32F 30 0% - - 100% 0 mhos 13 - None None - -
02/09/2018 10:50 Ice Warning 17.4F - 31F 32F 25 0% - - 100% 0 mhos 12 - None None - -
02/09/2018 10:45 Ice Warning 16.7F - 31F 32F 25 0% - - 100% 0 mhos 11 - None None - -
Date/Time
(MDT)
Sf
Temp Chem Water Layer Surface Precipitation
Sfc Pvt Sub Frz Factor Pct Dpth DpthThk IcePct Cond Salin FI Type Intens Accum Rate
02/09/2018 10:39 Ice Warning 15.6F - 31F 32F 25 0% - - 100% 0 mhos 10 - None None - -
02/09/2018 10:30 Ice Warning 15.4F - 31F 32F 25 0% - - 100% 0 mhos 10 - None None - -
02/09/2018 10:29 Ice Warning 15.4F - 31F 32F 25 0% - - 100% 0 mhos 10 - None None - -
02/09/2018 10:19 Ice Warning 14.9F - 31F 32F 25 0% - - 100% 0 mhos 9 - None None - -
02/09/2018 10:15 Ice Warning 14.9F - 31F 32F 25 0% - - 100% 0 mhos 9 - None None - -
02/09/2018 10:09 Ice Warning 14.7F - 31F 32F 25 0% - - 100% 0 mhos 9 - None None - -
02/09/2018 10:00 Ice Warning 14.5F - 31F 32F 20 0% - - 100% 0 mhos 9 - None None - -
02/09/2018 09:59 Ice Warning 14.7F - 31F 32F 20 0% - - 100% 0 mhos 9 - None None - -
02/09/2018 09:49 Ice Warning 14.5F - 31F 32F 20 0% - - 100% 0 mhos 9 - None None - -
02/09/2018 09:45 Ice Warning 14.5F - 31F 32F 20 0% - - 100% 0 mhos 9 - None None - -
02/09/2018 09:39 Ice Warning 14.5F - 31F 32F 20 0% - - 100% 0 mhos 8 - None None - -
02/09/2018 09:30 Ice Warning 14.4F - 31F 32F 20 0% - - 100% 0 mhos 8 - None None - -
02/09/2018 09:29 Ice Warning 14.4F - 31F 32F 20 0% - - 100% 0 mhos 8 - None None - -
02/09/2018 09:19 Ice Warning 14.5F - 31F 32F 20 0% - - 100% 0 mhos 8 - None None - -
02/09/2018 09:15 Ice Warning 14.5F - 31F 32F 20 0% - - 100% 0 mhos 8 - None None - -
Date/Time
(MDT)
Sf
Temp Chem Water Layer Surface Precipitation
Sfc Pvt Sub Frz Factor Pct Dpth DpthThk IcePct Cond Salin FI Type Intens Accum Rate
02/09/2018 09:09 Ice Warning 14.5F - 31F 32F 20 0% - - 100% 0 mhos 8 - None None - -
02/09/2018 09:00 Ice Warning 14.7F - 31F 32F 20 0% - - 100% 0 mhos 8 - None None - -
02/09/2018 08:59 Ice Warning 14.7F - 31F 32F 20 0% - - 100% 0 mhos 8 - None None - -
02/09/2018 08:49 Ice Warning 14.9F - 31F 32F 20 0% - - 100% 0 mhos 8 - None None - -
02/09/2018 08:45 Ice Warning 14.9F - 31F 32F 20 0% - - 100% 0 mhos 8 - None None - -
02/09/2018 08:39 Ice Warning 15.1F - 31F 32F 20 0% - - 100% 0 mhos 8 - None None - -
02/09/2018 08:30 Ice Warning 15.3F - 31F 32F 20 0% - - 100% 0 mhos 8 - None None - -
02/09/2018 08:29 Ice Warning 15.3F - 31F 32F 20 0% - - 100% 0 mhos 8 - None None - -
02/09/2018 08:19 Ice Warning 15.4F - 31F 32F 20 0% - - 100% 0 mhos 8 - None None - -
02/09/2018 08:15 Ice Warning 15.4F - 31F 32F 20 0% - - 100% 0 mhos 8 - None None - -
02/09/2018 08:09 Ice Warning 15.6F - 31F 32F 20 0% - - 100% 0 mhos 8 - None None - -
02/09/2018 08:00 Ice Warning 16.0F - 31F 32F 20 0% - - 100% 0 mhos 8 - None None - -
02/09/2018 07:59 Ice Warning 16.0F - 31F 32F 20 0% - - 100% 0 mhos 8 - None None - -
02/09/2018 07:49 Ice Warning 16.2F - 31F 32F 20 0% - - 100% 0 mhos 8 - None None - -
02/09/2018 07:45 Ice Warning 16.2F - 31F 32F 20 0% - - 100% 0 mhos 8 - None None - -
Date/Time
(MDT)
Sf
Temp Chem Water Layer Surface Precipitation
Sfc Pvt Sub Frz Factor Pct Dpth DpthThk IcePct Cond Salin FI Type Intens Accum Rate
02/09/2018 07:38 Ice Warning 16.5F - 31F 32F 20 0% - - 100% 0 mhos 8 - None None - -
02/09/2018 07:30 Ice Warning 16.9F - 31F 32F 20 0% - - 100% 0 mhos 8 - None None - -
02/09/2018 07:28 Ice Warning 16.9F - 31F 32F 20 0% - - 100% 0 mhos 8 - None None - -
02/09/2018 07:18 Ice Warning 17.2F - 31F 32F 20 0% - - 100% 0 mhos 8 - None None - -
02/09/2018 07:15 Ice Warning 17.2F - 31F 32F 20 0% - - 100% 0 mhos 8 - None None - -
02/09/2018 07:08 Ice Warning 17.6F - 31F 32F 20 0% - - 100% 0 mhos 8 - None None - -
02/09/2018 07:00 Ice Warning 18.1F - 31F 32F 20 0% - - 100% 0 mhos 8 - None None - -
02/09/2018 06:58 Ice Warning 18.1F - 31F 32F 20 0% - - 100% 0 mhos 8 - None None - -
02/09/2018 06:48 Ice Warning 18.5F - 31F 32F 15 0% - - 100% 0 mhos 8 - None None - -
02/09/2018 06:45 Ice Warning 18.7F - 31F 32F 15 0% - - 100% 0 mhos 8 - None None - -
02/09/2018 06:38 Ice Warning 19.0F - 31F 32F 15 0% - - 100% 0 mhos 8 - None None - -
02/09/2018 06:30 Ice Warning 19.2F - 31F 32F 15 0% - - 100% 0 mhos 8 - None None - -
02/09/2018 06:28 Ice Warning 19.4F - 31F 32F 15 0% - - 100% 0 mhos 8 - None None - -
02/09/2018 06:18 Ice Warning 19.8F - 31F 32F 15 0% - - 100% 0 mhos 8 - None None - -
02/09/2018 06:15 Ice Warning 19.6F - 31F 32F 15 0% - - 100% 0 mhos 8 - None None - -
Date/Time
(MDT)
Sf
Temp Chem Water Layer Surface Precipitation
Sfc Pvt Sub Frz Factor Pct Dpth DpthThk IcePct Cond Salin FI Type Intens Accum Rate
02/09/2018 06:08 Ice Warning 19.9F - 31F 32F 15 0% - - 100% 0 mhos 8 - None None - -
02/09/2018 06:00 Ice Warning 20.3F - 31F 32F 15 0% - - 100% 0 mhos 8 - None None - -
02/09/2018 05:58 Ice Warning 20.5F - 31F 32F 15 0% - - 100% 0 mhos 8 - None None - -
02/09/2018 05:48 Ice Warning 21.2F - 31F 32F 15 0% - - 100% 0 mhos 8 - None None - -
02/09/2018 05:45 Ice Warning 21.4F - 31F 32F 15 0% - - 100% 0 mhos 8 - None None - -
02/09/2018 05:38 Ice Warning 21.9F - 31F 32F 15 0% - - 100% 0 mhos 9 - None None - -
02/09/2018 05:30 Ice Warning 22.8F - 31F 32F 15 0% - - 100% 0 mhos 10 - None None - -
02/09/2018 05:28 Ice Warning 23.4F - 31F 32F 15 0% - - 100% 0 mhos 10 - Yes - - -
02/09/2018 05:18 Ice Warning 24.1F - 31F 32F 15 0% - - 100% 0 mhos 10 - Yes - - -
02/09/2018 05:15 Ice Warning 24.3F - 31F 32F 15 0% - - 100% 0 mhos 10 - Yes - - -
02/09/2018 05:08 Ice Warning 24.6F - 31F 32F 15 0% - - 100% 0 mhos 10 - Yes - - -
02/09/2018 05:00 Ice Warning 24.6F - 31F 32F 15 0% - - 100% 0 mhos 10 - Yes - - -
02/09/2018 04:58 Ice Warning 24.6F - 31F 32F 15 0% - - 100% 0 mhos 10 - Yes - - -
02/09/2018 04:48 Ice Warning 24.8F - 31F 32F 15 0% - - 100% 0 mhos 9 - Yes - - -
02/09/2018 04:45 Ice Warning 24.8F - 31F 32F 15 0% - - 100% 0 mhos 9 - Yes - - -
Date/Time
(MDT)
Sf
Temp Chem Water Layer Surface Precipitation
Sfc Pvt Sub Frz Factor Pct Dpth DpthThk IcePct Cond Salin FI Type Intens Accum Rate
02/09/2018 04:37 Ice Warning 24.8F - 31F 32F 15 0% - - 100% 0 mhos 9 - Yes - - -
02/09/2018 04:30 Ice Warning 24.8F - 31F 32F 15 0% - - 100% 0 mhos 8 - Yes - - -
02/09/2018 04:27 Ice Warning 24.8F - 31F 32F 15 0% - - 100% 0 mhos 8 - Yes - - -
02/09/2018 04:17 Ice Warning 24.8F - 31F 32F 15 0% - - 100% 0 mhos 8 - Yes - - -
02/09/2018 04:15 Ice Warning 24.6F - 31F 32F 15 0% - - 100% 0 mhos 8 - Yes - - -
02/09/2018 04:07 Ice Warning 24.6F - 31F 32F 15 0% - - 100% 0 mhos 7 - Yes - - -
02/09/2018 04:00 Ice Warning 24.6F - 31F 32F 15 0% - - 100% 0 mhos 7 - Yes - - -
02/09/2018 03:57 Ice Warning 24.6F - 31F 32F 15 0% - - 100% 0 mhos 7 - Yes - - -
02/09/2018 03:47 Ice Warning 24.6F - 31F 32F 15 0% - - 100% 0 mhos 6 - Yes - - -
02/09/2018 03:45 Ice Warning 24.6F - 31F 32F 15 0% - - 100% 0 mhos 6 - Yes - - -
02/09/2018 03:37 Ice Warning 24.6F - 31F 32F 15 0% - - 100% 0 mhos 6 - Yes - - -
02/09/2018 03:30 Ice Warning 24.8F - 31F 32F 15 0% - - 100% 0 mhos 6 - Yes - - -
02/09/2018 03:27 Ice Warning 24.8F - 31F 32F 15 0% - - 100% 0 mhos 6 - Yes - - -
02/09/2018 03:17 Ice Warning 24.6F - 31F 32F 15 0% - - 100% 0 mhos 6 - None None - -
02/09/2018 03:15 Ice Warning 24.6F - 31F 32F 15 0% - - 100% 0 mhos 6 - None None - -
Date/Time
(MDT)
Sf
Temp Chem Water Layer Surface Precipitation
Sfc Pvt Sub Frz Factor Pct Dpth DpthThk IcePct Cond Salin FI Type Intens Accum Rate
02/09/2018 03:07 Ice Warning 24.6F - 31F 32F 15 0% - - 100% 0 mhos 6 - None None - -
02/09/2018 03:00 Ice Warning 24.8F - 31F 32F 15 0% - - 100% 0 mhos 6 - None None - -
02/09/2018 02:57 Ice Warning 24.8F - 31F 32F 15 0% - - 100% 0 mhos 6 - None None - -
02/09/2018 02:47 Ice Warning 24.8F - 31F 32F 15 0% - - 100% 0 mhos 6 - Yes - - -
02/09/2018 02:45 Ice Warning 24.8F - 31F 32F 15 0% - - 100% 0 mhos 6 - None None - -
02/09/2018 02:37 Ice Warning 24.6F - 31F 32F 15 0% - - 100% 0 mhos 5 - None None - -
02/09/2018 02:30 Ice Warning 24.6F - 31F 32F 15 0% - - 100% 0 mhos 5 - Yes - - -
02/09/2018 02:27 Ice Warning 24.6F - 31F 32F 15 0% - - 100% 0 mhos 5 - Yes - - -
02/09/2018 02:17 Ice Warning 24.6F - 31F 32F 15 0% - - 100% 0 mhos 5 - Yes - - -
02/09/2018 02:15 Ice Warning 24.6F - 31F 32F 15 0% - - 100% 0 mhos 5 - Yes - - -
02/09/2018 02:07 Ice Warning 24.6F - 31F 32F 15 0% - - 100% 0 mhos 5 - Yes - - -
02/09/2018 02:00 Ice Warning 24.6F - 31F 32F 15 0% - - 100% 0 mhos 5 - Yes - - -
02/09/2018 01:57 Ice Warning 24.6F - 31F 32F 15 0% - - 100% 0 mhos 5 - Yes - - -
02/09/2018 01:47 Ice Warning 24.6F - 31F 32F 15 0% - - 100% 0 mhos 5 - Yes - - -
02/09/2018 01:45 Ice Warning 24.6F - 31F 32F 15 0% - - 100% 0 mhos 5 - Yes - - -
Date/Time
(MDT)
Sf
Temp Chem Water Layer Surface Precipitation
Sfc Pvt Sub Frz Factor Pct Dpth DpthThk IcePct Cond Salin FI Type Intens Accum Rate
02/09/2018 01:37 Ice Warning 24.8F - 31F 32F 15 0% - - 100% 0 mhos 5 - Yes - - -
02/09/2018 01:30 Ice Warning 24.8F - 31F 32F 15 0% - - 100% 0 mhos 5 - Yes - - -
02/09/2018 01:26 Ice Warning 24.8F - 31F 32F 15 0% - - 100% 0 mhos 5 - Yes - - -
02/09/2018 01:16 Ice Warning 24.8F - 31F 32F 15 0% - - 100% 0 mhos 5 - Yes - - -
02/09/2018 01:15 Ice Warning 24.8F - 31F 32F 15 0% - - 100% 0 mhos 5 - Yes - - -
02/09/2018 01:06 Ice Warning 24.6F - 31F 32F 15 0% - - 100% 0 mhos 5 - Yes - - -
02/09/2018 01:00 Ice Warning 24.8F - 31F 32F 15 0% - - 100% 0 mhos 5 - None None - -
02/09/2018 00:56 Ice Warning 24.8F - 31F 32F 15 0% - - 100% 0 mhos 5 - Yes - - -
02/09/2018 00:46 Ice Warning 24.6F - 31F 32F 15 0% - - 100% 0 mhos 5 - Yes - - -
02/09/2018 00:45 Ice Warning 24.6F - 31F 32F 15 0% - - 100% 0 mhos 5 - Yes - - -
02/09/2018 00:36 Ice Warning 24.6F - 31F 32F 15 0% - - 100% 0 mhos 5 - Yes - - -
02/09/2018 00:30 Ice Warning 24.6F - 31F 32F 15 0% - - 100% 0 mhos 5 - Yes - - -
02/09/2018 00:26 Ice Warning 24.6F - 31F 32F 10 0% - - 100% 0 mhos 5 - Yes - - -
02/09/2018 00:16 Ice Warning 24.8F - 31F 32F 10 0% - - 100% 0 mhos 5 - Yes - - -
02/09/2018 00:15 Ice Warning 24.8F - 31F 32F 10 0% - - 100% 0 mhos 5 - Yes - - -
Date/Time
(MDT)
Sf
Temp Chem Water Layer Surface Precipitation
Sfc Pvt Sub Frz Factor Pct Dpth DpthThk IcePct Cond Salin FI Type Intens Accum Rate
02/09/2018 00:06 Ice Warning 25.0F - 31F 32F 10 0% - - 100% 0 mhos 5 - None None - -
02/09/2018 00:00 Ice Warning 25.2F - 31F 32F 10 0% - - 100% 0 mhos 5 - None None - -
02/08/2018 23:56 Ice Warning 25.2F - 31F 32F 10 0% - - 100% 0 mhos 5 - None None - -
02/08/2018 23:46 Ice Warning 25.3F - 31F 32F 10 0% - - 100% 0 mhos 5 - None None - -
02/08/2018 23:45 Ice Warning 25.3F - 31F 32F 10 0% - - 100% 0 mhos 5 - None None - -
02/08/2018 23:36 Ice Warning 25.3F - 31F 32F 5 0% - - 100% 0 mhos 5 - None None - -
02/08/2018 23:30 Ice Warning 25.5F - 31F 32F 5 0% - - 100% 0 mhos 5 - None None - -
02/08/2018 23:26 Ice Warning 25.5F - 31F 32F 5 0% - - 100% 0 mhos 5 - None None - -
02/08/2018 23:16 Ice Warning 25.7F - 31F 32F 5 0% - - 100% 0 mhos 5 - None None - -
02/08/2018 23:15 Ice Warning 25.7F - 31F 32F 5 0% - - 100% 0 mhos 5 - None None - -
02/08/2018 23:06 Ice Warning 25.7F - 31F 32F 5 0% - - 100% 0 mhos 5 - None None - -
02/08/2018 23:00 Ice Warning 25.7F - 31F 32F 5 0% - - 100% 0 mhos 5 - None None - -
02/08/2018 22:56 Ice Warning 25.7F - 31F 32F 5 0% - - 100% 0 mhos 5 - None None - -
02/08/2018 22:46 Ice Warning 25.7F - 31F 32F 5 0% - - 100% 0 mhos 6 - None None - -
02/08/2018 22:45 Ice Warning 25.9F - 31F 32F 5 0% - - 100% 0 mhos 6 - None None - -
Date/Time
(MDT)
Sf
Temp Chem Water Layer Surface Precipitation
Sfc Pvt Sub Frz Factor Pct Dpth DpthThk IcePct Cond Salin FI Type Intens Accum Rate
02/08/2018 22:36 Ice Warning 26.2F - 31F 32F 5 0% - - 100% 0 mhos 6 - None None - -
02/08/2018 22:30 Ice Warning 26.2F - 31F 32F 5 0% - - 100% 0 mhos 6 - None None - -
02/08/2018 22:26 Ice Warning 26.2F - 31F 32F 5 0% - - 100% 0 mhos 6 - None None - -
02/08/2018 22:15 Ice Warning 26.4F - 31F 32F 5 0% - - 100% 0 mhos 6 - None None - -
02/08/2018 22:15 Ice Warning 26.4F - 31F 32F 5 0% - - 100% 0 mhos 6 - None None - -
02/08/2018 22:05 Ice Warning 26.4F - 31F 32F 5 0% - - 100% 0 mhos 6 - None None - -
02/08/2018 22:00 Ice Warning 26.4F - 31F 32F 5 0% - - 100% 0 mhos 6 - None None - -
02/08/2018 21:55 Ice Warning 26.6F - 31F 32F 5 0% - - 100% 0 mhos 6 - None None - -
02/08/2018 21:45 Ice Warning 26.8F - 31F 32F 5 0% - - 100% 0 mhos 6 - None None - -
02/08/2018 21:45 Ice Warning 26.8F - 31F 32F 5 0% - - 100% 0 mhos 6 - None None - -
02/08/2018 21:35 Ice Warning 26.8F - 31F 32F 5 0% - - 100% 0 mhos 6 - None None - -
02/08/2018 21:30 Ice Warning 26.8F - 31F 32F 5 0% - - 100% 0 mhos 6 - Yes - - -
02/08/2018 21:25 Ice Warning 26.6F - 31F 32F 5 0% - - 100% 0 mhos 6 - None None - -
02/08/2018 21:15 Ice Warning 26.4F - 31F 32F 5 0% - - 100% 0 mhos 6 - Yes - - -
02/08/2018 21:15 Ice Warning 26.4F - 31F 32F 5 0% - - 100% 0 mhos 6 - Yes - - -
Date/Time
(MDT)
Sf
Temp Chem Water Layer Surface Precipitation
Sfc Pvt Sub Frz Factor Pct Dpth DpthThk IcePct Cond Salin FI Type Intens Accum Rate
02/08/2018 21:05 Ice Warning 26.2F - 31F 32F 5 0% - - 100% 0 mhos 6 - Yes - - -
02/08/2018 21:00 Ice Warning 26.4F - 31F 32F 5 0% - - 100% 0 mhos 6 - Yes - - -
02/08/2018 20:55 Ice Warning 26.2F - 31F 32F 5 0% - - 100% 0 mhos 6 - Yes - - -
02/08/2018 20:45 Ice Warning 26.2F - 31F 32F 5 0% - - 100% 0 mhos 6 - Yes - - -
02/08/2018 20:45 Ice Warning 26.2F - 31F 32F 5 0% - - 100% 0 mhos 6 - Yes - - -
02/08/2018 20:35 Ice Warning 26.6F - 31F 32F 5 0% - - 100% 0 mhos 6 - Yes - - -
02/08/2018 20:30 Ice Warning 26.4F - 31F 32F 5 0% - - 100% 0 mhos 6 - Yes - - -
02/08/2018 20:25 Ice Warning 26.4F - 31F 32F 5 0% - - 100% 0 mhos 6 - Yes - - -
02/08/2018 20:15 Ice Warning 26.6F - 31F 32F 5 0% - - 100% 0 mhos 6 - Yes - - -
02/08/2018 20:15 Ice Warning 26.6F - 31F 32F 5 0% - - 100% 0 mhos 6 - Yes - - -
02/08/2018 20:05 Ice Warning 27.3F - 31F 32F 5 0% - - 100% 0 mhos 7 - Yes - - -
02/08/2018 20:00 Ice Warning 27.3F - 31F 32F 5 0% - - 100% 0 mhos 7 - Yes - - -
02/08/2018 19:55 Ice Warning 27.5F - 31F 32F 5 0% - - 100% 0 mhos 7 - Yes - - -
02/08/2018 19:45 Ice Warning 28.0F - 31F 32F 5 0% - - 100% 0 mhos 7 - Yes - - -
02/08/2018 19:45 Ice Warning 28.0F - 31F 32F 5 0% - - 100% 0 mhos 7 - Yes - - -
Date/Time
(MDT)
Sf
Temp Chem Water Layer Surface Precipitation
Sfc Pvt Sub Frz Factor Pct Dpth DpthThk IcePct Cond Salin FI Type Intens Accum Rate
02/08/2018 19:35 Ice Warning 28.0F - 31F 32F 5 0% - - 100% 0 mhos 7 - Yes - - -
02/08/2018 19:30 Ice Warning 28.0F - 31F 32F 5 0% - - 100% 0 mhos 7 - Yes - - -
02/08/2018 19:25 Ice Warning 27.9F - 31F 32F 5 0% - - 100% 0 mhos 7 - Yes - - -
02/08/2018 19:15 Ice Warning 27.7F - 31F 32F 5 0% - - 100% 0 mhos 7 - Yes - - -
02/08/2018 19:14 Ice Warning 27.7F - 31F 32F 5 0% - - 100% 0 mhos 7 - Yes - - -
02/08/2018 19:04 Ice Warning 27.5F - 31F 32F 5 0% - - 100% 0 mhos 7 - Yes - - -
02/08/2018 19:00 Ice Warning 28.0F - 31F 32F 5 0% - - 100% 0 mhos 8 - Yes - - -
02/08/2018 18:54 Ice Warning 28.4F - 31F 32F 10 0% - - 100% 0 mhos 9 - Yes - - -
02/08/2018 18:45 Ice Warning 28.8F - 31F 32F 10 0% - - 100% 0 mhos 8 - Yes - - -
02/08/2018 18:44 Ice Warning 28.8F - 31F 32F 10 0% - - 100% 0 mhos 8 - Yes - - -
02/08/2018 18:34 Ice Warning 28.0F - 31F 32F 5 0% - - 100% 0 mhos 7 - Yes - - -
02/08/2018 18:30 Ice Warning 28.0F - 31F 32F 5 0% - - 100% 0 mhos 7 - Yes - - -
02/08/2018 18:24 Ice Warning 28.0F - 31F 32F 5 0% - - 100% 0 mhos 7 - Yes - - -
02/08/2018 18:15 Ice Warning 28.0F - 31F 32F 5 0% - - 100% 0 mhos 8 - Yes - - -
02/08/2018 18:14 Ice Warning 28.0F - 31F 32F 5 0% - - 100% 0 mhos 8 - Yes - - -
Change End Date:

Copyright © 1998-2015 Vaisala, Inc.
All Rights Reserved
Send comments about the data to:
SCAN Web ® is a registered trademark of Vaisala, Inc.
SCAN Web Version 6.0